When you browse on this site, cookies collect data to enhance your experience and personalize the content and advertising you see.
Visit our Privacy Policy to learn more. By continuing to use the site, you agree to this use of cookies and data.
  • In Spain
  • List of Countries
  • For 7 days
  • Water Temperature
  • Weather Map
  • Weather Widgets
  • user-avatar
    Login

    Hourly Weather Podberezovo

    Today, 24 August, Saturday

    Time Temperature Precipitation Wind Pressure Humidity
    00:00 +15°C° 0 mm 2 mps 752 mmHg 90%
    01:00 +14°C° 0 mm 2 mps 752 mmHg 90%
    02:00 +14°C° 0 mm 2 mps 752 mmHg 91%
    03:00 +14°C° 0 mm 2 mps 752 mmHg 91%
    04:00 +13°C° 0 mm 2 mps 752 mmHg 91%
    05:00 +13°C° 0 mm 2 mps 752 mmHg 91%
    06:00 +15°C° 0 mm 2 mps 752 mmHg 85%
    07:00 +18°C° 0 mm 1 mps 752 mmHg 79%
    08:00 +20°C° 0 mm 1 mps 752 mmHg 72%
    09:00 +21°C° 0 mm 1 mps 752 mmHg 66%
    10:00 +22°C° 0 mm 1 mps 752 mmHg 60%
    11:00 +22°C° 0 mm 0 mps 752 mmHg 54%
    12:00 +24°C° 0 mm 1 mps 751 mmHg 52%
    13:00 +24°C° 0 mm 1 mps 751 mmHg 50%
    14:00 +25°C° 0 mm 2 mps 751 mmHg 48%
    15:00 +24°C° 0 mm 2 mps 751 mmHg 52%
    16:00 +24°C° 0 mm 2 mps 750 mmHg 57%
    17:00 +23°C° 0 mm 2 mps 750 mmHg 62%
    18:00 +21°C° 0 mm 1 mps 750 mmHg 65%
    19:00 +20°C° 0 mm 1 mps 750 mmHg 68%
    20:00 +18°C° 0 mm 1 mps 750 mmHg 71%
    21:00 +18°C° 0 mm 1 mps 750 mmHg 74%
    22:00 +16°C° 0 mm 1 mps 750 mmHg 77%
    23:00 +15°C° 0 mm 2 mps 750 mmHg 80%

    Tomorrow, 25 August, Sunday

    Time Temperature Precipitation Wind Pressure Humidity
    00:00 +15°C° 0 mm 2 mps 750 mmHg 84%
    01:00 +15°C° 0 mm 2 mps 750 mmHg 87%
    02:00 +15°C° 0 mm 2 mps 750 mmHg 90%
    03:00 +14°C° 0 mm 2 mps 750 mmHg 92%
    04:00 +14°C° 0 mm 2 mps 750 mmHg 94%
    05:00 +14°C° 0 mm 2 mps 750 mmHg 95%
    06:00 +14°C° 0 mm 3 mps 750 mmHg 89%
    07:00 +17°C° 0 mm 3 mps 750 mmHg 83%
    08:00 +18°C° 0 mm 3 mps 751 mmHg 76%
    09:00 +19°C° 0 mm 3 mps 751 mmHg 70%
    10:00 +20°C° 0 mm 4 mps 751 mmHg 64%
    11:00 +21°C° 0 mm 4 mps 751 mmHg 57%
    12:00 +22°C° 0 mm 4 mps 751 mmHg 57%
    13:00 +22°C° 0 mm 4 mps 751 mmHg 57%
    14:00 +22°C° 0 mm 4 mps 751 mmHg 56%
    15:00 +22°C° 0 mm 3 mps 751 mmHg 60%
    16:00 +21°C° 0 mm 3 mps 751 mmHg 64%
    17:00 +21°C° 0 mm 3 mps 751 mmHg 67%
    18:00 +19°C° 0 mm 3 mps 752 mmHg 71%
    19:00 +17°C° 0 mm 2 mps 752 mmHg 75%
    20:00 +16°C° 0 mm 2 mps 752 mmHg 79%
    21:00 +15°C° 0 mm 2 mps 752 mmHg 81%
    22:00 +15°C° 0 mm 2 mps 753 mmHg 83%
    23:00 +14°C° 0 mm 2 mps 753 mmHg 85%

    Day after tomorrow, 26 August, Monday

    Time Temperature Precipitation Wind Pressure Humidity
    00:00 +14°C° 0 mm 2 mps 753 mmHg 86%
    01:00 +13°C° 0 mm 1 mps 753 mmHg 88%
    02:00 +13°C° 0 mm 1 mps 753 mmHg 89%
    03:00 +13°C° 0 mm 1 mps 753 mmHg 89%
    04:00 +12°C° 0 mm 1 mps 753 mmHg 90%
    05:00 +12°C° 0 mm 1 mps 753 mmHg 90%
    06:00 +14°C° 0 mm 1 mps 754 mmHg 83%
    07:00 +16°C° 0 mm 1 mps 754 mmHg 76%
    08:00 +18°C° 0 mm 1 mps 754 mmHg 69%
    09:00 +20°C° 0 mm 1 mps 754 mmHg 65%
    10:00 +21°C° 0 mm 1 mps 754 mmHg 60%
    11:00 +22°C° 0 mm 1 mps 754 mmHg 55%
    12:00 +22°C° 0 mm 1 mps 753 mmHg 53%
    13:00 +23°C° 0 mm 1 mps 753 mmHg 50%
    14:00 +23°C° 0 mm 1 mps 753 mmHg 48%
    15:00 +23°C° 0 mm 1 mps 752 mmHg 52%
    16:00 +23°C° 0 mm 1 mps 752 mmHg 55%
    17:00 +22°C° 0 mm 1 mps 751 mmHg 59%
    18:00 +20°C° 0 mm 1 mps 751 mmHg 63%
    19:00 +19°C° 0 mm 1 mps 751 mmHg 66%
    20:00 +16°C° 0 mm 1 mps 751 mmHg 69%
    21:00 +16°C° 0 mm 1 mps 751 mmHg 70%
    22:00 +15°C° 0 mm 1 mps 751 mmHg 70%
    23:00 +15°C° 0 mm 2 mps 751 mmHg 71%

    27 August, Tuesday

    Time Temperature Precipitation Wind Pressure Humidity
    00:00 +15°C° 0 mm 2 mps 750 mmHg 73%
    01:00 +14°C° 0 mm 2 mps 750 mmHg 74%
    02:00 +14°C° 0 mm 2 mps 749 mmHg 76%
    03:00 +13°C° 0 mm 2 mps 749 mmHg 78%
    04:00 +13°C° 0 mm 2 mps 749 mmHg 80%
    05:00 +12°C° 0 mm 3 mps 749 mmHg 82%
    06:00 +14°C° 0 mm 3 mps 749 mmHg 80%
    07:00 +16°C° 0 mm 3 mps 748 mmHg 78%
    08:00 +18°C° 0 mm 4 mps 748 mmHg 76%
    09:00 +19°C° 0 mm 4 mps 748 mmHg 71%
    10:00 +20°C° 0 mm 4 mps 747 mmHg 67%
    11:00 +22°C° 0 mm 5 mps 747 mmHg 62%
    12:00 +22°C° 0.2 mm 5 mps 747 mmHg 64%
    13:00 +22°C° 0.2 mm 5 mps 746 mmHg 65%
    14:00 +22°C° 0.2 mm 6 mps 746 mmHg 67%
    15:00 +21°C° 0.2 mm 6 mps 745 mmHg 70%
    16:00 +20°C° 0.2 mm 5 mps 745 mmHg 74%
    17:00 +20°C° 0.2 mm 5 mps 745 mmHg 77%
    18:00 +17°C° 0 mm 5 mps 745 mmHg 79%
    19:00 +16°C° 0 mm 5 mps 745 mmHg 80%
    20:00 +15°C° 0 mm 4 mps 746 mmHg 81%
    21:00 +14°C° 0 mm 5 mps 746 mmHg 82%
    22:00 +13°C° 0 mm 5 mps 747 mmHg 83%
    23:00 +12°C° 0 mm 5 mps 747 mmHg 84%

    28 August, Wednesday

    Time Temperature Precipitation Wind Pressure Humidity
    00:00 +11°C° 0 mm 4 mps 748 mmHg 84%
    01:00 +10°C° 0 mm 4 mps 748 mmHg 84%
    02:00 +8°C° 0 mm 4 mps 748 mmHg 84%
    03:00 +8°C° 0 mm 3 mps 748 mmHg 84%
    04:00 +7°C° 0 mm 3 mps 749 mmHg 84%
    05:00 +5°C° 0 mm 3 mps 749 mmHg 84%
    06:00 +7°C° 0 mm 4 mps 749 mmHg 78%
    07:00 +8°C° 0 mm 4 mps 750 mmHg 73%
    08:00 +9°C° 0 mm 5 mps 750 mmHg 67%
    09:00 +12°C° 0 mm 5 mps 750 mmHg 63%
    10:00 +13°C° 0 mm 5 mps 750 mmHg 60%
    11:00 +14°C° 0 mm 6 mps 749 mmHg 56%
    12:00 +14°C° 0 mm 6 mps 749 mmHg 54%
    13:00 +15°C° 0 mm 6 mps 749 mmHg 52%
    14:00 +15°C° 0 mm 6 mps 749 mmHg 50%
    15:00 +15°C° 0 mm 5 mps 749 mmHg 53%
    16:00 +14°C° 0 mm 5 mps 749 mmHg 56%
    17:00 +14°C° 0 mm 4 mps 749 mmHg 59%
    18:00 +12°C° 0 mm 3 mps 749 mmHg 63%
    19:00 +10°C° 0 mm 3 mps 750 mmHg 67%
    20:00 +9°C° 0 mm 3 mps 750 mmHg 71%
    21:00 +8°C° 0 mm 3 mps 750 mmHg 72%
    22:00 +8°C° 0 mm 2 mps 750 mmHg 73%
    23:00 +7°C° 0 mm 2 mps 751 mmHg 74%

    29 August, Thursday

    Time Temperature Precipitation Wind Pressure Humidity
    00:00 +6°C° 0 mm 2 mps 751 mmHg 76%
    01:00 +6°C° 0 mm 2 mps 751 mmHg 78%
    02:00 +6°C° 0 mm 2 mps 751 mmHg 79%
    03:00 +5°C° 0 mm 2 mps 751 mmHg 81%
    04:00 +5°C° 0 mm 2 mps 751 mmHg 82%
    05:00 +5°C° 0 mm 2 mps 751 mmHg 83%
    06:00 +7°C° 0 mm 3 mps 751 mmHg 78%
    07:00 +8°C° 0 mm 3 mps 751 mmHg 72%
    08:00 +10°C° 0 mm 4 mps 751 mmHg 67%
    09:00 +11°C° 0 mm 4 mps 751 mmHg 62%
    10:00 +13°C° 0 mm 4 mps 751 mmHg 58%
    11:00 +14°C° 0 mm 4 mps 751 mmHg 54%
    12:00 +15°C° 0 mm 4 mps 750 mmHg 53%
    13:00 +15°C° 0 mm 4 mps 750 mmHg 51%
    14:00 +17°C° 0 mm 4 mps 750 mmHg 50%
    15:00 +15°C° 0 mm 4 mps 750 mmHg 54%
    16:00 +16°C° 0 mm 3 mps 749 mmHg 59%
    17:00 +16°C° 0 mm 3 mps 749 mmHg 63%
    18:00 +14°C° 0 mm 3 mps 750 mmHg 63%
    19:00 +13°C° 0 mm 3 mps 750 mmHg 63%
    20:00 +12°C° 0 mm 4 mps 750 mmHg 63%
    21:00 +10°C° 0 mm 3 mps 750 mmHg 68%
    22:00 +9°C° 0 mm 3 mps 750 mmHg 73%
    23:00 +7°C° 0 mm 2 mps 750 mmHg 78%
    Show more